• In Switzerland
  • List of Countries
  • For 7 days
  • Water Temperature
  • Satellite Maps
  • Weather Map
  • Weather Widgets
  • user-avatar
    Login

    Hourly Weather Ocotal

    Today, 19 January, Friday

    Time Temperature Precipitation Wind Pressure Humidity
    00:00 +19°C° 0 mm 2 mps 710 mmHg 87%
    01:00 +19°C° 0 mm 2 mps 710 mmHg 87%
    02:00 +18°C° 0 mm 2 mps 709 mmHg 88%
    03:00 +18°C° 0 mm 2 mps 709 mmHg 89%
    04:00 +18°C° 0 mm 2 mps 709 mmHg 90%
    05:00 +18°C° 0 mm 2 mps 709 mmHg 90%
    06:00 +18°C° 0 mm 2 mps 709 mmHg 91%
    07:00 +20°C° 0 mm 3 mps 710 mmHg 83%
    08:00 +21°C° 0 mm 4 mps 710 mmHg 75%
    09:00 +23°C° 0 mm 5 mps 711 mmHg 67%
    10:00 +25°C° 0 mm 5 mps 710 mmHg 62%
    11:00 +26°C° 0 mm 5 mps 710 mmHg 57%
    12:00 +28°C° 0 mm 5 mps 710 mmHg 53%
    13:00 +28°C° 0 mm 5 mps 709 mmHg 53%
    14:00 +27°C° 0 mm 5 mps 709 mmHg 54%
    15:00 +27°C° 0 mm 5 mps 708 mmHg 55%
    16:00 +26°C° 0 mm 4 mps 708 mmHg 62%
    17:00 +24°C° 0 mm 3 mps 708 mmHg 68%
    18:00 +23°C° 0 mm 2 mps 708 mmHg 75%
    19:00 +21°C° 0 mm 2 mps 708 mmHg 78%
    20:00 +20°C° 0 mm 2 mps 709 mmHg 82%
    21:00 +20°C° 0 mm 2 mps 709 mmHg 85%
    22:00 +19°C° 0 mm 2 mps 709 mmHg 87%
    23:00 +19°C° 0 mm 2 mps 709 mmHg 89%

    Tomorrow, 20 January, Saturday

    Time Temperature Precipitation Wind Pressure Humidity
    00:00 +19°C° 0 mm 2 mps 709 mmHg 90%
    01:00 +19°C° 0 mm 2 mps 708 mmHg 90%
    02:00 +19°C° 0 mm 2 mps 708 mmHg 91%
    03:00 +19°C° 0 mm 2 mps 708 mmHg 91%
    04:00 +19°C° 0 mm 2 mps 708 mmHg 90%
    05:00 +19°C° 0 mm 2 mps 708 mmHg 90%
    06:00 +19°C° 0 mm 2 mps 708 mmHg 90%
    07:00 +20°C° 0 mm 2 mps 709 mmHg 83%
    08:00 +22°C° 0 mm 3 mps 709 mmHg 76%
    09:00 +25°C° 0 mm 3 mps 710 mmHg 69%
    10:00 +26°C° 0 mm 3 mps 710 mmHg 65%
    11:00 +27°C° 0 mm 3 mps 709 mmHg 62%
    12:00 +28°C° 0 mm 4 mps 709 mmHg 59%
    13:00 +28°C° 0 mm 4 mps 708 mmHg 57%
    14:00 +29°C° 0 mm 3 mps 708 mmHg 55%
    15:00 +29°C° 0 mm 3 mps 707 mmHg 53%
    16:00 +27°C° 0.1 mm 3 mps 707 mmHg 61%
    17:00 +26°C° 0.1 mm 2 mps 707 mmHg 69%
    18:00 +24°C° 0.1 mm 2 mps 707 mmHg 77%
    19:00 +23°C° 0 mm 2 mps 708 mmHg 82%
    20:00 +21°C° 0 mm 2 mps 708 mmHg 87%
    21:00 +20°C° 0 mm 2 mps 709 mmHg 92%
    22:00 +20°C° 0 mm 2 mps 709 mmHg 92%
    23:00 +20°C° 0 mm 2 mps 708 mmHg 93%

    Day after tomorrow, 21 January, Sunday

    Time Temperature Precipitation Wind Pressure Humidity
    00:00 +20°C° 0 mm 2 mps 708 mmHg 93%
    01:00 +20°C° 0 mm 2 mps 708 mmHg 93%
    02:00 +20°C° 0 mm 2 mps 707 mmHg 92%
    03:00 +20°C° 0 mm 2 mps 707 mmHg 92%
    04:00 +20°C° 0 mm 2 mps 707 mmHg 92%
    05:00 +20°C° 0 mm 2 mps 707 mmHg 92%
    06:00 +20°C° 0 mm 2 mps 707 mmHg 93%
    07:00 +21°C° 0 mm 2 mps 708 mmHg 87%
    08:00 +23°C° 0 mm 2 mps 709 mmHg 81%
    09:00 +25°C° 0 mm 3 mps 709 mmHg 75%
    10:00 +25°C° 0 mm 3 mps 709 mmHg 72%
    11:00 +26°C° 0 mm 3 mps 708 mmHg 69%
    12:00 +27°C° 0 mm 3 mps 708 mmHg 65%
    13:00 +27°C° 0 mm 3 mps 707 mmHg 63%
    14:00 +28°C° 0 mm 3 mps 706 mmHg 61%
    15:00 +29°C° 0 mm 3 mps 706 mmHg 58%
    16:00 +27°C° 0 mm 3 mps 706 mmHg 66%
    17:00 +25°C° 0 mm 2 mps 706 mmHg 74%
    18:00 +23°C° 0 mm 2 mps 706 mmHg 81%
    19:00 +23°C° 0 mm 2 mps 707 mmHg 85%
    20:00 +22°C° 0 mm 1 mps 707 mmHg 89%
    21:00 +21°C° 0 mm 1 mps 708 mmHg 93%
    22:00 +21°C° 0 mm 1 mps 707 mmHg 94%
    23:00 +21°C° 0 mm 1 mps 707 mmHg 95%

    22 January, Monday

    Time Temperature Precipitation Wind Pressure Humidity
    00:00 +21°C° 0 mm 1 mps 707 mmHg 95%
    01:00 +21°C° 0 mm 1 mps 707 mmHg 95%
    02:00 +21°C° 0 mm 1 mps 707 mmHg 94%
    03:00 +21°C° 0 mm 1 mps 706 mmHg 94%
    04:00 +21°C° 0.1 mm 1 mps 706 mmHg 94%
    05:00 +21°C° 0.1 mm 1 mps 707 mmHg 93%
    06:00 +21°C° 0.1 mm 1 mps 707 mmHg 93%
    07:00 +21°C° 0 mm 2 mps 708 mmHg 85%
    08:00 +24°C° 0 mm 2 mps 708 mmHg 77%
    09:00 +26°C° 0 mm 3 mps 709 mmHg 68%
    10:00 +27°C° 0 mm 3 mps 709 mmHg 61%
    11:00 +28°C° 0 mm 3 mps 708 mmHg 53%
    12:00 +30°C° 0 mm 4 mps 708 mmHg 46%
    13:00 +30°C° 0 mm 4 mps 707 mmHg 46%
    14:00 +30°C° 0 mm 4 mps 706 mmHg 45%
    15:00 +30°C° 0 mm 4 mps 705 mmHg 45%
    16:00 +28°C° 0 mm 3 mps 706 mmHg 54%
    17:00 +26°C° 0 mm 3 mps 706 mmHg 63%
    18:00 +24°C° 0 mm 2 mps 706 mmHg 72%
    19:00 +23°C° 0 mm 2 mps 707 mmHg 77%
    20:00 +21°C° 0 mm 2 mps 707 mmHg 83%
    21:00 +20°C° 0 mm 2 mps 708 mmHg 88%
    22:00 +20°C° 0 mm 2 mps 707 mmHg 90%
    23:00 +20°C° 0 mm 2 mps 707 mmHg 91%

    23 January, Tuesday

    Time Temperature Precipitation Wind Pressure Humidity
    00:00 +20°C° 0 mm 2 mps 707 mmHg 92%
    01:00 +20°C° 0 mm 2 mps 707 mmHg 92%
    02:00 +20°C° 0 mm 2 mps 706 mmHg 93%
    03:00 +20°C° 0 mm 2 mps 706 mmHg 93%
    04:00 +20°C° 0 mm 2 mps 706 mmHg 93%
    05:00 +20°C° 0 mm 2 mps 707 mmHg 93%
    06:00 +20°C° 0 mm 2 mps 707 mmHg 93%
    07:00 +21°C° 0 mm 2 mps 707 mmHg 86%
    08:00 +22°C° 0 mm 3 mps 708 mmHg 80%
    09:00 +24°C° 0 mm 3 mps 709 mmHg 74%
    10:00 +25°C° 0.2 mm 4 mps 708 mmHg 72%
    11:00 +25°C° 0.2 mm 4 mps 708 mmHg 71%
    12:00 +26°C° 0.2 mm 4 mps 708 mmHg 69%
    13:00 +26°C° 0.2 mm 4 mps 707 mmHg 68%
    14:00 +26°C° 0.2 mm 4 mps 706 mmHg 67%
    15:00 +26°C° 0.2 mm 4 mps 706 mmHg 65%
    16:00 +25°C° 0 mm 4 mps 706 mmHg 70%
    17:00 +24°C° 0 mm 3 mps 706 mmHg 74%
    18:00 +21°C° 0 mm 2 mps 706 mmHg 78%
    19:00 +21°C° 0 mm 2 mps 707 mmHg 81%
    20:00 +20°C° 0 mm 2 mps 707 mmHg 84%
    21:00 +20°C° 0 mm 2 mps 707 mmHg 87%
    22:00 +20°C° 0 mm 2 mps 707 mmHg 88%
    23:00 +19°C° 0 mm 2 mps 707 mmHg 88%

    24 January, Wednesday

    Time Temperature Precipitation Wind Pressure Humidity
    00:00 +19°C° 0 mm 2 mps 707 mmHg 89%
    01:00 +19°C° 0 mm 2 mps 707 mmHg 89%
    02:00 +19°C° 0 mm 2 mps 706 mmHg 89%
    03:00 +19°C° 0 mm 2 mps 706 mmHg 90%
    04:00 +19°C° 0 mm 2 mps 706 mmHg 90%
    05:00 +19°C° 0 mm 2 mps 707 mmHg 90%
    06:00 +19°C° 0 mm 2 mps 707 mmHg 91%
    07:00 +20°C° 0 mm 2 mps 708 mmHg 84%
    08:00 +22°C° 0 mm 3 mps 708 mmHg 78%
    09:00 +24°C° 0 mm 3 mps 709 mmHg 71%
    10:00 +25°C° 0 mm 4 mps 708 mmHg 65%
    11:00 +27°C° 0 mm 4 mps 708 mmHg 59%
    12:00 +28°C° 0 mm 4 mps 707 mmHg 53%
    13:00 +28°C° 0.2 mm 4 mps 707 mmHg 55%
    14:00 +28°C° 0.2 mm 4 mps 706 mmHg 57%
    15:00 +27°C° 0.2 mm 4 mps 706 mmHg 59%
    16:00 +26°C° 0.2 mm 3 mps 706 mmHg 67%
    17:00 +24°C° 0.2 mm 2 mps 706 mmHg 74%
    18:00 +23°C° 0.2 mm 2 mps 706 mmHg 82%
    19:00 +21°C° 0.1 mm 2 mps 707 mmHg 85%
    20:00 +21°C° 0.1 mm 2 mps 707 mmHg 88%
    21:00 +20°C° 0.1 mm 2 mps 708 mmHg 91%
    22:00 +20°C° 0 mm 2 mps 707 mmHg 91%
    23:00 +20°C° 0 mm 2 mps 707 mmHg 92%
    Show more